Content
SEND FEEDBACK

Daily
Averages
Monthly
Summary
United Kingdom

BRADWELL, ENGLAND


Home > Europe > United Kingdom > England
Elevation: 7 feet     Latitude: 52 36N     Longitude: 001 42E

WEATHER
 
SELECT A DAY
Number of Records: 209,364;   Date Range: 7/1/96 - 7/28/14
 
SHARE

PRINT THIS DATA

[ ← Previous Day ]
WEATHER ALMANAC - OCTOBER 22, 2013
[ Next Day → ]
[ °C ]   °F
Weather ElementAverageHighLow
Temperature60 °F62.6 °F (10:20 am)57.2 °F (10:20 pm)
Dewpoint56.9 °F59 °F (11:50 am)55.4 °F (12:50 am)
Humidity89.9 %94 % (5:50 am)82 % (8:50 am)
Barometer29.47 in29.62 in (12:50 am)29.39 in (5:50 pm)
Wind Speed13.8 mph18.4 mph (11:50 am)
Weather ElementAverage
Visibility5.8 mi
Wind DirectionSSE (173.2 °)

Weather ElementTotal
Precipitation---
Heating Degree Days5.1 (Base 65)
Growing Degree Days9.9 (Base 50)
Averaged from 47 records on October 22, 2013
WEATHER CONDITIONS BREAKOUT
WIND DIRECTION BREAKOUT
WEATHER BY HOUR - OCTOBER 22, 2013
[ °C ]   °F
Local TimeTemperatureDewpointHumidityBarometerVisibilityWind DirectionWind SpeedGust SpeedPrecipitationEventsConditions
12:50 AM59.0 °F55.4 °F88 %29.62 in6.2 miSouth (170°)12.7 mph
1:20 AM59.0 °F55.4 °F88 %29.62 in6.2 miSouth (170°)15.0 mph
1:50 AM59.0 °F55.4 °F88 %29.59 in6.2 miSouth (170°)16.1 mph
2:20 AM59.0 °F55.4 °F88 %29.59 in6.2 miSSE (160°)12.7 mph
2:50 AM59.0 °F55.4 °F88 %29.59 in6.2 miSouth (170°)13.8 mph
3:20 AM59.0 °F55.4 °F88 %29.56 in6.2 miSouth (170°)13.8 mph
3:50 AM59.0 °F55.4 °F88 %29.56 in6.2 miSouth (170°)12.7 mph
4:20 AM59.0 °F55.4 °F88 %29.56 in6.2 miSouth (170°)15.0 mph
4:50 AM59.0 °F55.4 °F88 %29.56 in6.2 miSSE (160°)13.8 mph
5:20 AM59.0 °F55.4 °F88 %29.53 in6.2 miSouth (170°)11.5 mph
5:50 AM59.0 °F57.2 °F94 %29.53 inSSE (160°)11.5 mphClear
6:20 AM59.0 °F55.4 °F88 %29.53 inSSE (160°)10.4 mphClear
6:50 AM59.0 °F57.2 °F94 %29.50 inSSE (160°)12.7 mphClear
7:20 AM59.0 °F55.4 °F88 %29.50 inSSE (160°)10.4 mphClear
7:50 AM59.0 °F55.4 °F88 %29.50 inSSE (160°)15.0 mphClear
8:20 AM60.8 °F57.2 °F88 %29.50 inSSE (160°)13.8 mphClear
8:50 AM60.8 °F55.4 °F82 %29.50 inSouth (170°)16.1 mphClear
9:20 AM60.8 °F55.4 °F82 %29.47 inSouth (170°)13.8 mphClear
9:50 AM60.8 °F57.2 °F88 %29.47 inSouth (170°)15.0 mphClear
10:20 AM62.6 °F57.2 °F82 %29.47 inSouth (180°)15.0 mphClear
10:50 AM62.6 °F57.2 °F82 %29.44 inSouth (180°)16.1 mphClear
11:20 AM62.6 °F57.2 °F82 %29.44 in6.2 miSouth (170°)17.3 mphPartly Cloudy
11:50 AM62.6 °F59.0 °F88 %29.47 in6.2 miSouth (180°)18.4 mphPartly Cloudy
12:20 PM62.6 °F59.0 °F88 %29.44 in6.2 miSouth (180°)15.0 mphPartly Cloudy
12:50 PM62.6 °F59.0 °F88 %29.44 in6.2 miSouth (180°)16.1 mphRainRain
1:20 PM60.8 °F59.0 °F94 %29.44 in5.0 miSouth (170°)16.1 mphRainRain
1:50 PM60.8 °F59.0 °F94 %29.44 in5.6 miSouth (180°)16.1 mphRainLight Rain
2:20 PM60.8 °F59.0 °F94 %29.42 in6.2 miSouth (170°)15.0 mphRainLight Rain
2:50 PM60.8 °F59.0 °F94 %29.42 in3.7 miSouth (170°)13.8 mphRainRain
3:20 PM60.8 °F59.0 °F94 %29.42 in3.7 miSouth (170°)11.5 mphRainLight Rain
3:50 PM60.8 °F59.0 °F94 %29.42 in5.0 miSouth (170°)12.7 mphPartly Cloudy
4:20 PM60.8 °F59.0 °F94 %29.42 in5.6 miSouth (180°)13.8 mphMostly Cloudy
4:50 PM60.8 °F59.0 °F94 %29.42 in5.6 miSouth (180°)13.8 mphScattered Clouds
5:20 PM60.8 °F59.0 °F94 %29.42 in5.6 miSouth (180°)16.1 mphPartly Cloudy
5:50 PM60.8 °F59.0 °F94 %29.39 in5.6 miSouth (180°)15.0 mphPartly Cloudy
6:20 PM59.0 °F57.2 °F94 %29.39 in5.6 miSouth (170°)15.0 mphPartly Cloudy
6:50 PM59.0 °F57.2 °F94 %29.39 in6.2 miSouth (170°)15.0 mphPartly Cloudy
7:20 PM60.8 °F57.2 °F88 %29.39 inSouth (180°)16.1 mphClear
7:50 PM59.0 °F57.2 °F94 %29.42 inSouth (180°)13.8 mphClear
8:20 PM59.0 °F57.2 °F94 %29.42 inSouth (180°)13.8 mphClear
8:50 PM59.0 °F57.2 °F94 %29.39 inSouth (180°)11.5 mphClear
9:20 PM59.0 °F57.2 °F94 %29.39 inSouth (190°)11.5 mphClear
9:50 PM59.0 °F55.4 °F88 %29.39 in6.2 miSouth (170°)10.4 mph
10:20 PM57.2 °F55.4 °F94 %29.39 in6.2 miSouth (180°)9.2 mph
10:50 PM59.0 °F55.4 °F88 %29.39 in6.2 miSouth (190°)10.4 mphPartly Cloudy
11:20 PM59.0 °F55.4 °F88 %29.39 in6.2 miSouth (190°)12.7 mph
11:50 PM57.2 °F55.4 °F94 %29.39 in6.2 miSouth (190°)12.7 mph
Hourly data recorded from EGSH, located miles away from Bradwell, England







STORIES FROM OUR PARTNERS